Terug naar catalogus

COSMOS 1522

ActiefNavigatieLEO
NORAD 14611·PAYLOAD·🇷🇺 Russia

Gelanceerd Jan 5, 1984 vanaf Plesetsk Cosmodrome

Loading…

Volgende Passages (komende 24 uur)

TLE

VersSource: Space-Track

Epoch: Sep 14, 2026, 14:42 UTC

1 14611U 84001A   26257.61306494 -.00000005  00000-0  74619-4 0  9998
2 14611  74.0081 304.2079 0019477  45.6650 122.2762 12.47066901943514

Volg COSMOS 1522 in realtime met AllMySat

Download on the App Store